Regional Weather Roundup
Issued by NWS San Diego, CA

Home | Current Version | Previous Version | Text Only | Print | Product List | Glossary On
Versions: 1 2 3 4 5 6 7 8 9 10 11 12 13 14 15 16 17 18 19 20 21 22 23 24 25 26 27 28 29 30 31 32 33 34 35 36 37 38 39 40 41 42 43 44 45 46 47 48 49 50
000
ASUS46 KSGX 251010
RWRSGX

SAN DIEGO HOURLY WEATHER ROUNDUP
NATIONAL WEATHER SERVICE SAN DIEGO CA
300 AM PDT SAT OCT 25 2014

NOTE: "FAIR" INDICATES FEW OR NO CLOUDS BELOW 12,000 FEET WITH NO
SIGNIFICANT WEATHER AND/OR OBSTRUCTIONS TO VISIBILITY.

CAZ042-043-060-061-PZZ750-775-251100-

GREATER SAN DIEGO AREA

CITY           SKY/WX    TMP DP  RH WIND       PRES   REMARKS
LINDBERGH FLD  PTCLDY    68  61  78 NE3       30.00F
POINT LOMA       N/A     65  63  93 N8          N/A
NATIONAL CITY    N/A     66  60  81 CALM      30.00F
CHULA VISTA      N/A     61  53  74 CALM      29.93F
IMPERIAL BEACH FOG       66  63  90 E5        30.00S VSB<1/4
BROWN FIELD    CLEAR     65  52  62 CALM      30.00F
MIRAMAR MCAS   CLOUDY    67  64  90 N8        30.00F FOG
MONTGOMERY FLD MOCLDY    67  64  90 N9        30.00F FOG

$$

NORTH SAN DIEGO COUNTY

CITY           SKY/WX    TMP DP  RH WIND       PRES   REMARKS
CAMP PENDLETON MOCLDY    57  35  43 CALM      30.01S
OCEANSIDE AP   CLOUDY    58  48  69 CALM      30.01S
OCEANSIDE HBR    N/A     62  52  70 E3        30.03S
VISTA            N/A     64  57  77 CALM      29.99F
CARLSBAD       CLOUDY    66  63  90 CALM      30.01S FOG
DEL MAR          N/A     66  65  96 CALM      30.03F
LA JOLLA SCRIP   N/A     67  66  95 CALM      29.97
FALLBROOK        N/A     64  44  49 CALM      30.02S
ESCONDIDO        N/A     65  46  50 CALM      30.02F
SAN MARCOS       N/A     65  55  69 CALM      29.98F
POWAY            N/A     60  45  59 CALM      30.01F

$$

EAST SAN DIEGO COUNTY

CITY           SKY/WX    TMP DP  RH WIND       PRES   REMARKS
RAMONA         MOCLDY    55  34  45 CALM      30.04F
SANTEE LAKES     N/A     62  46  56 CALM      30.02F
LA MESA          N/A     66  52  60 CALM      29.93F
JAMUL            N/A     62  46  55 CALM      29.97F
DESCANSO N       N/A     56  43  61 NE2       29.91F
MT. LAGUNA OBS   N/A     54  43  66 W12       29.79S
CAMPO            N/A     52  37  56 NE9       30.05F

$$

ORANGE COUNTY AND THE LOS ANGELES BASIN

CITY           SKY/WX    TMP DP  RH WIND       PRES   REMARKS
JOHN WAYNE AP  CLEAR     67  60  78 SE3       30.00F
LAKE FOREST FR   N/A     63  44  50 CALM      29.89S
SANTA ANA        N/A     62  58  87 CALM      29.95F
HUNTINGTON BCH   N/A     62  61  95 CALM      30.02F
LOS ALAMITOS   FAIR      62  61  95 NE6       29.99F
FULLERTON      CLEAR     62  52  69 CALM      29.99F
LONG BEACH     CLEAR     65  62  90 N3        29.98F
L.A. AP        PTCLDY    63  62  95 W9        30.00F
L.A. DOWNTOWN  CLEAR     64  57  78 NE3       29.99F

$$

THE INLAND EMPIRE

CITY           SKY/WX    TMP DP  RH WIND       PRES   REMARKS
CORONA         CLEAR     52  42  68 CALM      30.02F
CHINO          PTCLDY    58  44  60 E5        30.02F
ONTARIO        CLEAR     64  41  42 CALM      30.02S
RIVERSIDE AP   CLEAR     64  40  41 E3        30.02F
RIV CYN CREST    N/A     65  49  56 CALM      30.00F
MORENO VALLEY    N/A     68  45  44 CALM      29.21F
MARCH ARB      PTCLDY    57  33  40 CALM      30.04F
HORSETHIEF CYN   N/A     63  38  39 S3        30.01F
PERRIS           N/A     64  41  42 CALM      30.03F
MENIFEE          N/A     59  45  59 W1        30.09F
HEMET EAST       N/A     66  40  37 CALM      30.00F
FRENCH VALLEY  PTSUNNY   61  37  41 CALM      30.04S
TEMECULA         N/A     61  43  51 CALM      30.01S

$$

SAN BERNARDINO AND RIVERSIDE COUNTY MOUNTAINS

CITY           SKY/WX    TMP DP  RH WIND       PRES   REMARKS
BIG BEAR AP    CLEAR     50  37  62 SW5       30.25F
ANGELUS OAKS     N/A     52  41  65 CALM      29.93F
PINE COVE        N/A     54  41  61 N2        29.89F

$$

SOUTHERN DESERT INCLUDING THE COACHELLA VALLEY

CITY           SKY/WX    TMP DP  RH WIND       PRES   REMARKS
PALM SPRINGS   CLEAR     76  46  34 CALM      29.96S
THOUSAND PALMS   N/A     78  45  30 S1        29.91S
PALM DESERT      N/A     68  54  60 CALM        N/A
THERMAL        CLEAR     63  47  55 N3        29.90F
BLYTHE         CLEAR     69  45  41 N5        29.94S
IMPERIAL AP    CLEAR     71  47  42 CALM      29.90F
EL CENTRO NAS  CLEAR     72  42  34 W6        29.91F
YUMA AZ        MOCLDY    74  47  38 NE3       29.92F

$$

UPPER DESERT

CITY           SKY/WX    TMP DP  RH WIND       PRES   REMARKS
VICTORVILLE AP CLEAR     64  36  34 S3        30.07F
HESPERIA         N/A     68  40  36 W8        30.08S
APPLE VALLEY     N/A     66  36  32 CALM      30.12S
PALMDALE       CLEAR     66  33  29 VRB3      30.05F
LANCASTER      CLEAR     57  27  31 W5        30.05F
EDWARDS AFB    CLEAR     53  28  38 E5        30.04F
DAGGETT        CLEAR     70  38  31 W8        30.02S
29 PALMS N     CLEAR     63  37  38 CALM      30.08F
NEEDLES        CLEAR     70  40  33 CALM      29.97S

$$

REGIONAL REPORTS

CITY           SKY/WX    TMP DP  RH WIND       PRES   REMARKS
SANTA BARBARA  MOCLDY    53  49  86 NW5       30.01S
SANDBERG       CLEAR     59  25  27 S15G25    30.12F
MT. WILSON       N/A     55  39  54 SW13        N/A
LAS VEGAS NV   CLEAR     69  37  30 SW12      29.98F
PHOENIX AZ     CLEAR     76  49  38 E10       29.98F
TIJUANA        CLEAR     66  55  68 CALM      30.02R
ENSENADA NW      N/A     67  32  27 NE2       29.97F

$$

OFFSHORE ISLANDS

CITY           SKY/WX    TMP DP  RH WIND       PRES   REMARKS
CATALINA ARPT  CLEAR     68  28  22 S3        30.04F
SAN NICOLAS IS MOCLDY   N/A N/A N/A W9        30.02F

$$

MARINE AND OFFSHORE BUOY REPORTS

STATION/POSITION SKY/WX   TEMP    WIND        PRES    SWELL
                          AIR SEA DIR/SP/G            HT/PER/DIR
                          (F)     (DEG/KT/KT) (MB)    (FT/S/D)
TANNER BANKS               65 68  320/ 12/ 14 1016.2F   5/310/12
S CLEMENTE BASIN           68 71  310/ 10/ 12 1015.2F   3/290/12
SAN NICOLAS IS.               67                N/A     5/300/12
SO. S. ROSA ISLA           64 69  300/ 10/ 12 1015.7F   5/11
W. S. BARBARA CH           63 64  300/ 10/ 10 1015.7S   7/300/12
S. MONICA BASIN            65 70  240/  6/  6 1015.6F   3/240/10
S PEDRO CHANNEL               70                N/A     2/270/11
DANA POINT                    70                N/A     2/250/12
CMP PENDLETON NS              70                N/A     2/220/15
OCEANSIDE OFFSHR              71                N/A     2/220/13
TORREY PINES OTR              72                N/A     2/270/12
LA JOLLA 1                 69 71   30/  5/  5 1015.9F
MISSION BAY BUOY              72                N/A     3/270/13
SAN DIEGO BAY                 74              1016.1F
POINT LOMA SOUTH              71                N/A     2/210/15

$$




USA.gov is the U.S. government's official web portal to all federal, state and local government web resources and services.